TimePST,TemperatureF,Dew PointF,Humidity,Sea Level PressureIn,VisibilityMPH,Wind Direction,Wind SpeedMPH,Gust SpeedMPH,PrecipitationIn,Events,Conditions,WindDirDegrees,DateUTC
12:00 AM,41.9,38.5,88,30.17,-9999.0,WSW,9.2,-,N/A,,Unknown,250,2013-02-17 08:00:00
1:00 AM,41.5,38.1,88,30.18,-9999.0,West,5.8,-,N/A,,Unknown,260,2013-02-17 09:00:00
2:00 AM,41.5,38.1,88,30.19,-9999.0,West,6.9,-,N/A,,Unknown,260,2013-02-17 10:00:00
3:00 AM,41.7,37.4,85,30.20,-9999.0,WSW,4.6,-,N/A,,Unknown,250,2013-02-17 11:00:00
4:00 AM,41,37,80,30.19,,WSW,4.6,,,,,250,2013-02-17 12:00:00
4:00 AM,41.2,36.9,85,30.19,-9999.0,WSW,4.6,-,N/A,,Unknown,250,2013-02-17 12:00:00
5:00 AM,40.8,37.6,88,30.20,-9999.0,West,4.6,-,N/A,,Unknown,260,2013-02-17 13:00:00
6:00 AM,39.0,36.1,89,30.19,-9999.0,WSW,3.5,-,0.01,,Unknown,250,2013-02-17 14:00:00
7:00 AM,37.6,35.4,92,30.19,-9999.0,West,3.5,-,N/A,,Unknown,260,2013-02-17 15:00:00
8:00 AM,39.4,34.7,83,30.20,-9999.0,West,4.6,-,N/A,,Unknown,270,2013-02-17 16:00:00
9:00 AM,41.9,35.4,78,30.22,-9999.0,West,4.6,-,N/A,,Unknown,270,2013-02-17 17:00:00
10:00 AM,45,34,55,30.22,,West,3.5,,,,,280,2013-02-17 18:00:00
10:00 AM,44.6,34.0,66,30.22,-9999.0,West,3.5,-,N/A,,Unknown,280,2013-02-17 18:00:00
11:00 AM,45.7,35.1,66,30.22,-9999.0,ESE,2.3,-,N/A,,Unknown,120,2013-02-17 19:00:00
12:00 PM,46.9,35.6,65,30.21,-9999.0,ENE,1.2,-,N/A,,Unknown,70,2013-02-17 20:00:00
1:00 PM,46.2,36.9,70,30.21,-9999.0,South,6.9,-,N/A,,Unknown,170,2013-02-17 21:00:00
2:00 PM,44.8,36.5,73,30.20,-9999.0,SSE,2.3,-,N/A,,Unknown,160,2013-02-17 22:00:00
3:00 PM,46.2,36.1,68,30.19,-9999.0,ESE,3.5,-,N/A,,Unknown,120,2013-02-17 23:00:00
4:00 PM,44,37,70,30.19,,SE,2.3,,,,,140,2013-02-18 00:00:00
4:00 PM,44.1,37.4,77,30.19,-9999.0,SE,2.3,-,N/A,,Unknown,140,2013-02-18 00:00:00
5:00 PM,42.8,36.9,80,30.18,-9999.0,SSE,1.2,-,N/A,,Unknown,150,2013-02-18 01:00:00
6:00 PM,42.3,36.7,81,30.17,-9999.0,ESE,1.2,-,N/A,,Unknown,120,2013-02-18 02:00:00
7:00 PM,41.0,36.7,85,30.16,-9999.0,Calm,Calm,-,N/A,,Unknown,0,2013-02-18 03:00:00
8:00 PM,36.9,34.2,90,30.16,-9999.0,West,1.2,-,N/A,,Unknown,260,2013-02-18 04:00:00
9:00 PM,37.2,35.6,94,30.15,-9999.0,Calm,Calm,-,N/A,,Unknown,0,2013-02-18 05:00:00
10:00 PM,36,35,95,30.14,,West,1.2,,,,,280,2013-02-18 06:00:00
10:00 PM,36.5,35.1,95,30.14,-9999.0,West,1.2,-,N/A,,Unknown,280,2013-02-18 06:00:00
11:00 PM,35.8,34.5,95,30.12,-9999.0,NW,1.2,-,N/A,,Unknown,310,2013-02-18 07:00:00